Tracking 29892 objects as of 21-Nov-2024
HD Live streaming from Space Station
objects crossing your sky now

METEOR 2-5 DEB

Track METEOR 2-5 DEB now!
10-day predictions


NORAD ID: 38273
Int'l Code: 1979-095BT
Perigee: 787.0 km
Apogee: 796.2 km
Inclination: 81.2 °
Period: 100.5 minutes
Semi major axis: 7162 km
RCS: 0.0001 m2 (small)
Launch date: October 31, 1979
Source: Commonwealth of Independent States (former USSR) (CIS)
Launch site: PLESETSK MISSILE AND SPACE COMPLEX (PKMTR)

Note: This is SATELLITE DEBRIS
Your satellite tracking list
Your tracking list is empty




NASA's NSSDC Master Catalog

Two Line Element Set (TLE):
1 38273U 79095BT  24300.50292834  .00009935  00000-0  36822-2 0  9994
2 38273  81.2200  12.7163 0006443 177.1040 183.0181 14.32179614589849
Source of the keplerian elements: AFSPC